Tracking 29932 objects as of 4-Dec-2024
HD Live streaming from Space Station
objects crossing your sky now

STARLINK-31049

Track STARLINK-31049 now!
10-day predictions
STARLINK-31049 is classified as:


NORAD ID: 58543
Int'l Code: 2023-192N
Perigee: 481.4 km
Apogee: 483.3 km
Inclination: 53.2 °
Period: 94.1 minutes
Semi major axis: 6853 km
RCS: Unknown
Launch date: December 8, 2023
Source: United States (US)
Launch site: AIR FORCE WESTERN TEST RANGE (AFWTR)
Your satellite tracking list
Your tracking list is empty




NASA's NSSDC Master Catalog

Two Line Element Set (TLE):
1 58543U 23192N   24338.50676076  .00001194  00000-0  52435-4 0  9997
2 58543  53.1603  45.0675 0001412 126.0571 234.0560 15.30198231 55375
Source of the keplerian elements: AFSPC